Location: Grevenbroich
(51.0902°N, 6.5859°E)
Time: 01:05:19
(UTC+01:00)

ISS - Pass Details

Date: 14 February 2026
Orbit: 416 x 427 km, 51.6° (Epoch: 7 March)

Event Time Altitude Azimuth Distance (km) Brightness Sun altitude
Exits shadow 06:16:51 - 203° (SSW) 1,964 -0.6 -14.9°
Reaches altitude 10° 06:18:16 10° 190° (S) 1,489 -1.0 -14.7°
Maximum altitude 06:20:44 19° 143° (SE) 1,058 -1.2 -14.3°
Drops below altitude 10° 06:23:11 10° 95° (E) 1,493 0.5 -13.9°
Sets 06:25:40 0° 78° (ENE) 2,359 1.6 -13.5°
